Date,TemperatureHighF,TemperatureAvgF,TemperatureLowF,DewpointHighF,DewpointAvgF,DewpointLowF,HumidityHigh,HumidityAvg,HumidityLow,PressureMaxIn,PressureMinIn,WindSpeedMaxMPH,WindSpeedAvgMPH,GustSpeedMaxMPH,PrecipitationSumIn
2013-1-1,45,34,25,18,12,8,68,43,27,30.28,30.11,16,2,18,0.00
2013-1-2,51,38,29,13,10,8,43,31,19,30.27,30.06,13,2,17,0.00
2013-1-3,51,40,28,14,7,0,37,26,15,30.30,30.12,12,2,17,0.00
2013-1-4,52,38,28,8,2,-2,35,23,11,30.30,30.13,6,0,8,0.00
2013-1-5,52,41,29,14,4,-2,35,23,12,30.33,30.11,19,1,21,0.00
2013-1-6,44,39,32,34,28,10,100,69,27,30.13,29.99,27,9,32,0.02
2013-1-7,52,39,27,32,22,12,100,58,23,30.13,30.00,18,4,24,0.03
2013-1-8,63,49,38,30,24,12,50,38,26,30.22,30.05,10,1,14,0.00
2013-1-9,64,52,41,36,28,24,60,41,26,30.21,29.85,28,8,38,0.01
2013-1-10,49,34,28,40,27,17,100,76,45,30.04,29.83,38,18,47,0.09
2013-1-11,37,30,25,19,16,11,73,58,39,30.12,30.00,25,11,36,0.00
2013-1-12,41,29,19,19,12,5,75,51,27,30.15,30.01,13,1,18,0.00
2013-1-13,41,28,18,15,7,3,63,43,24,30.21,29.97,8,0,11,0.00
2013-1-14,34,24,15,4,-2,-8,53,33,16,30.35,30.20,15,2,19,0.00
2013-1-15,46,36,25,18,11,-1,46,36,28,30.40,30.27,15,3,20,0.00
2013-1-16,55,44,33,21,18,13,56,36,22,30.40,30.19,12,2,18,0.00
2013-1-17,58,46,37,15,11,7,36,25,15,30.31,30.13,13,2,20,0.00
2013-1-18,59,46,36,15,10,8,32,24,15,30.26,30.09,10,1,14,0.00
2013-1-19,60,46,37,14,9,4,32,23,12,30.28,30.11,12,2,14,0.00
2013-1-20,60,47,36,13,6,2,28,20,11,30.26,30.05,11,2,17,0.00
2013-1-21,63,49,40,9,3,-2,22,15,8,30.21,30.04,10,2,14,0.00
2013-1-22,61,49,39,13,5,0,27,17,11,30.21,30.01,9,2,12,0.00
2013-1-23,68,55,46,35,22,10,60,29,19,30.13,29.97,25,7,27,0.00
2013-1-24,55,48,45,53,45,33,100,91,53,30.19,30.06,19,4,25,0.06
2013-1-25,48,46,43,48,45,41,100,98,90,30.19,29.99,8,1,10,0.49
2013-1-26,63,49,46,57,48,46,100,95,69,29.99,29.80,20,5,25,0.01
2013-1-27,49,42,33,46,36,24,97,78,60,29.99,29.84,30,11,33,0.01
2013-1-28,42,35,29,26,23,20,80,61,44,30.16,29.98,25,12,35,0.00
2013-1-29,58,40,27,31,27,21,80,60,33,30.24,29.97,19,3,22,0.00
2013-1-30,60,49,41,32,28,26,60,46,29,30.29,30.13,8,1,12,0.00
2013-1-31,63,50,42,32,29,27,58,45,28,30.26,30.08,12,2,16,0.00
2013-2-1,65,51,39,37,29,25,65,44,24,30.23,30.04,8,2,10,0.00
2013-2-2,60,52,45,38,30,27,66,43,28,30.25,30.11,10,1,10,0.00
2013-2-3,62,51,43,43,36,26,85,58,36,30.18,29.97,16,2,19,0.03
2013-2-4,65,51,38,36,24,16,64,39,16,30.12,29.93,10,2,14,0.00
2013-2-5,62,50,41,44,32,19,100,54,28,30.05,29.87,20,9,24,0.00
2013-2-6,61,46,34,42,28,15,100,56,19,30.11,29.92,11,2,14,0.00
2013-2-7,59,46,36,40,30,16,90,57,19,30.12,29.87,31,12,38,0.00
2013-2-8,40,34,27,35,30,26,100,89,65,29.91,29.77,31,12,38,0.01
2013-2-9,40,33,25,33,29,23,99,85,66,30.05,29.87,24,9,27,0.00
2013-2-10,48,36,28,32,29,21,100,80,38,30.05,29.91,19,7,21,0.00
2013-2-11,46,36,27,32,14,-2,94,48,14,30.23,30.04,20,4,25,0.00
2013-2-12,52,40,29,13,8,4,37,28,20,30.30,30.14,10,1,16,0.00
2013-2-13,59,46,33,18,14,9,39,29,18,30.27,30.07,13,2,18,0.00
2013-2-14,61,50,39,23,19,15,39,31,21,30.24,30.06,15,3,20,0.00
2013-2-15,62,51,41,23,17,10,42,28,14,30.30,30.14,19,3,23,0.00
2013-2-16,65,51,38,18,14,9,35,23,12,30.31,29.95,11,2,16,0.00
2013-2-17,62,50,40,36,21,10,74,36,14,30.03,29.81,23,8,34,0.00
2013-2-18,61,48,39,39,26,9,100,49,13,30.00,29.84,26,11,32,0.00
2013-2-19,43,37,30,39,34,30,100,90,65,29.90,29.65,34,18,44,0.00
2013-2-20,46,33,24,32,27,22,100,80,43,29.97,29.66,29,10,35,0.01
2013-2-21,47,37,30,34,24,13,100,65,27,30.09,29.91,20,6,24,0.00
2013-2-22,55,42,27,32,21,12,83,49,19,30.17,30.00,11,2,14,0.00
2013-2-23,57,44,35,33,26,20,73,50,28,30.14,29.82,25,10,31,0.00
2013-2-24,50,38,26,23,3,-10,60,25,9,30.23,30.05,24,7,28,0.00
2013-2-25,64,45,29,21,10,3,54,26,11,30.24,29.96,21,3,22,0.00
2013-2-26,57,45,35,22,12,3,56,29,15,30.20,29.98,17,3,19,0.00
2013-2-27,56,45,33,11,5,1,31,20,13,30.34,30.16,15,2,20,0.00
2013-2-28,65,50,37,9,4,-1,23,16,10,30.36,30.19,13,2,20,0.00
2013-3-1,68,55,41,19,13,7,28,19,11,30.38,30.15,14,3,20,0.00
2013-3-2,72,59,45,24,19,13,35,22,11,30.30,30.03,24,6,29,0.00
2013-3-3,63,55,43,38,26,19,83,36,21,30.09,29.87,28,11,38,0.00
2013-3-4,69,52,40,43,36,28,90,58,22,30.06,29.89,15,6,19,0.00
2013-3-5,62,52,43,43,37,28,95,59,29,30.07,29.90,36,14,42,0.00
2013-3-6,51,44,37,40,38,35,95,79,59,30.05,29.92,23,11,38,0.00
2013-3-7,46,41,37,40,37,26,97,83,61,29.95,29.83,30,17,38,0.00
2013-3-8,44,37,32,37,34,28,100,89,57,29.97,29.74,25,12,34,0.07
2013-3-9,55,42,32,40,31,26,100,69,33,30.24,29.97,21,6,27,0.00
2013-3-10,61,49,33,30,17,11,87,33,15,30.27,30.09,16,3,20,0.00
2013-3-11,71,54,37,21,13,8,36,21,9,30.23,29.97,11,2,13,0.00
2013-3-12,75,59,42,22,17,12,32,20,12,30.15,29.95,13,3,17,0.00
2013-3-13,79,64,49,27,22,18,33,22,11,30.18,29.98,16,3,20,0.00
2013-3-14,83,67,51,34,26,21,34,23,11,30.16,29.93,11,3,16,0.00
2013-3-15,78,66,56,36,28,16,47,26,10,30.08,29.84,23,8,30,0.00
2013-3-16,75,62,50,36,24,14,49,25,10,29.97,29.78,24,8,31,0.00
2013-3-17,72,59,49,46,26,-4,73,34,5,29.99,29.82,25,8,29,0.00
2013-3-18,72,56,43,45,32,17,77,46,13,30.04,29.87,23,6,24,0.00
2013-3-19,72,59,48,47,34,22,82,44,18,30.08,29.91,27,11,27,0.00
2013-3-20,65,57,50,46,40,30,73,52,39,30.08,29.91,20,6,27,0.00
2013-3-21,71,56,44,43,32,14,76,44,15,29.97,29.72,23,6,29,0.00
2013-3-22,70,55,44,30,19,-3,50,28,7,29.95,29.74,25,7,29,0.00
2013-3-23,69,53,38,24,14,-2,44,24,9,30.04,29.85,17,2,21,0.00
2013-3-24,70,55,39,22,14,8,38,21,11,30.06,29.85,10,2,15,0.00
2013-3-25,71,60,48,39,28,17,58,31,16,29.99,29.83,18,6,23,0.00
2013-3-26,68,58,49,41,33,24,71,42,20,29.95,29.80,22,10,24,0.00
2013-3-27,65,55,47,46,38,33,91,56,37,30.02,29.83,25,11,31,0.00
2013-3-28,72,57,46,46,41,34,94,61,26,30.06,29.89,18,7,23,0.00
2013-3-29,72,60,45,47,37,20,86,48,14,30.11,29.93,24,7,31,0.00
2013-3-30,71,61,50,48,35,22,84,41,22,30.08,29.92,35,11,35,0.00
2013-3-31,60,53,46,45,37,24,87,57,31,30.05,29.93,30,16,37,0.00
2013-4-1,57,49,41,44,41,38,98,76,51,30.07,29.96,23,12,27,0.00
2013-4-2,71,55,39,43,36,27,100,57,21,30.10,29.89,12,4,21,0.00
2013-4-3,78,61,44,38,32,26,69,38,16,30.10,29.90,16,4,20,0.00
2013-4-4,70,60,49,48,39,22,92,50,17,30.05,29.91,23,12,29,0.00
2013-4-5,66,54,47,49,45,31,100,75,30,30.05,29.91,24,11,30,0.00
2013-4-6,70,56,42,49,41,29,100,65,25,30.05,29.87,24,6,31,0.00
2013-4-7,73,57,48,50,38,24,92,53,17,30.00,29.75,20,8,25,0.00
2013-4-8,52,46,43,48,33,18,99,62,29,29.83,29.62,38,14,45,0.25
2013-4-9,63,51,40,32,17,2,66,31,9,30.03,29.81,22,10,34,0.00
2013-4-10,71,58,44,23,13,4,29,19,8,30.11,29.91,19,6,29,0.00
2013-4-11,71,60,53,40,27,19,61,29,19,30.02,29.70,22,11,30,0.00
2013-4-12,79,62,49,49,37,22,79,45,13,29.88,29.68,19,5,21,0.00
2013-4-13,70,60,48,48,38,14,100,48,13,29.89,29.67,34,15,42,0.00
2013-4-14,55,48,43,48,45,43,100,92,71,29.81,29.69,35,19,41,0.00
2013-4-15,54,46,41,45,43,38,100,88,64,29.82,29.72,32,18,42,0.00
2013-4-16,52,44,35,40,24,15,92,50,25,29.98,29.77,35,15,40,0.00
2013-4-17,58,48,37,26,11,0,57,26,10,30.16,29.98,23,9,28,0.00
2013-4-18,63,51,38,14,6,-1,30,17,8,30.25,30.09,17,4,22,0.00
2013-4-19,74,60,45,18,8,0,22,13,8,30.21,29.92,14,4,21,0.00
2013-4-20,80,64,51,38,24,15,42,23,9,30.02,29.82,14,4,19,0.00
2013-4-21,80,67,49,40,28,18,51,27,11,30.02,29.84,22,7,27,0.00
2013-4-22,75,64,52,43,34,28,70,35,19,29.99,29.76,27,13,30,0.00
2013-4-23,74,62,49,44,24,7,75,30,10,29.95,29.80,19,6,26,0.00
2013-4-24,76,60,48,49,39,22,93,54,13,29.91,29.73,30,11,35,0.00
2013-4-25,62,52,43,46,44,42,100,78,51,30.07,29.89,30,17,36,0.00
2013-4-26,80,64,47,45,35,16,88,43,10,30.15,29.97,20,8,28,0.00
2013-4-27,84,70,52,40,26,8,48,24,6,30.16,29.91,15,4,18,0.00
2013-4-28,88,72,57,48,30,16,49,25,8,30.04,29.76,20,4,23,0.00
2013-4-29,84,70,56,40,30,17,42,25,9,29.91,29.68,27,9,31,0.00
2013-4-30,70,61,50,50,40,28,99,48,28,29.87,29.69,29,16,36,0.00
2013-5-1,76,63,48,50,16,-9,100,33,5,30.17,29.87,22,7,27,0.00
2013-5-2,74,62,50,4,-3,-10,12,7,4,30.27,30.07,20,4,21,0.00
2013-5-3,83,68,52,19,6,-5,16,9,5,30.15,29.76,16,4,19,0.00
2013-5-4,74,65,50,46,19,5,85,22,7,29.86,29.63,35,16,44,0.00
2013-5-5,54,49,44,46,43,40,96,81,65,29.90,29.77,31,19,45,0.00
2013-5-6,58,51,45,47,43,41,97,76,58,29.97,29.84,34,19,39,0.03
2013-5-7,59,50,44,43,40,36,91,71,49,30.03,29.90,27,14,32,0.00
2013-5-8,65,53,45,46,43,40,99,74,41,30.07,29.93,21,11,29,0.00
2013-5-9,75,58,45,49,44,33,96,63,22,30.08,29.90,20,6,27,0.00
2013-5-10,80,67,52,49,40,28,72,43,17,30.09,29.92,17,4,26,0.00
2013-5-11,85,73,59,44,35,23,51,29,11,30.11,29.93,19,3,20,0.00
2013-5-12,90,77,63,41,32,20,37,22,9,30.13,29.88,10,2,38,0.00
2013-5-13,90,78,64,42,32,21,38,21,9,30.06,29.85,20,5,29,0.00
2013-5-14,80,70,58,41,29,4,47,25,6,30.01,29.80,38,15,45,0.02
2013-5-15,74,65,56,48,39,25,66,39,26,30.00,29.86,27,14,32,0.00
2013-5-16,72,61,51,51,45,35,95,59,34,29.96,29.80,24,13,29,0.00
2013-5-17,64,56,50,51,49,46,100,81,54,30.00,29.86,24,12,31,0.00
2013-5-18,77,61,48,52,43,26,100,61,16,30.01,29.86,19,9,25,0.00
2013-5-19,82,66,52,49,29,18,89,29,10,30.02,29.79,18,4,24,0.00
2013-5-20,81,67,52,32,22,14,38,20,9,30.05,29.86,19,3,19,0.00
2013-5-21,80,70,57,50,31,16,70,26,16,29.99,29.74,32,9,39,0.00
2013-5-22,73,62,52,49,39,18,85,46,15,29.87,29.66,35,13,40,0.00
2013-5-23,67,56,47,48,45,38,96,70,35,29.93,29.78,26,13,31,0.00
2013-5-24,70,58,46,48,41,23,100,60,18,29.96,29.85,25,11,31,0.00
2013-5-25,70,58,46,46,38,24,97,54,19,29.97,29.86,28,14,31,0.00
2013-5-26,68,60,52,50,47,40,90,65,38,30.02,29.89,23,14,29,0.00
2013-5-27,79,63,48,51,43,28,99,55,16,30.00,29.77,18,7,26,0.00
2013-5-28,76,63,50,53,43,26,100,56,16,29.89,29.67,38,10,45,0.03
2013-5-29,79,67,54,51,37,19,70,36,11,29.86,29.67,30,10,40,0.00
2013-5-30,87,71,55,51,37,16,64,34,8,29.89,29.72,23,7,27,0.00
2013-5-31,90,74,56,49,34,21,68,30,8,29.93,29.74,15,4,20,0.00
2013-6-1,93,79,62,56,32,18,60,22,7,29.93,29.69,15,3,19,0.00
2013-6-2,85,74,60,55,45,34,72,38,17,29.83,29.68,31,15,35,0.00
2013-6-3,82,69,58,54,40,24,85,42,12,29.87,29.71,28,16,35,0.00
2013-6-4,80,67,52,54,42,30,100,50,17,29.93,29.78,28,14,31,0.00
2013-6-5,92,72,59,50,38,26,71,33,11,29.94,29.79,27,12,31,0.00
2013-6-6,88,74,64,50,38,26,52,29,13,29.93,29.76,33,11,34,0.00
2013-6-7,97,78,63,50,34,17,44,23,6,29.91,29.69,26,8,29,0.00
2013-6-8,97,79,65,54,40,20,66,29,7,29.89,29.68,29,11,35,0.00
2013-6-9,85,74,61,52,33,-5,70,30,3,29.91,29.79,34,15,40,0.00
2013-6-10,76,67,57,45,33,18,55,29,15,29.97,29.82,32,14,37,0.00
2013-6-11,89,75,60,46,34,23,52,26,11,29.96,29.82,27,10,27,0.00
2013-6-12,84,74,64,51,37,26,62,29,13,29.98,29.87,27,14,32,0.00
2013-6-13,83,71,60,49,45,37,68,41,20,30.00,29.84,22,9,28,0.00
2013-6-14,85,71,54,47,31,9,55,29,6,29.98,29.76,23,8,32,0.00
2013-6-15,81,68,57,49,33,-8,67,36,3,29.98,29.82,28,14,33,0.00
2013-6-16,84,71,56,49,37,12,70,36,8,30.03,29.86,24,8,26,0.00
2013-6-17,87,73,56,48,32,23,55,25,11,30.03,29.81,22,6,27,0.00
2013-6-18,82,69,57,52,42,33,70,40,19,29.97,29.77,23,10,27,0.00
2013-6-19,83,68,52,48,34,-7,68,37,3,29.93,29.74,19,5,24,0.00
2013-6-20,84,68,50,46,32,16,69,31,9,29.93,29.74,20,5,25,0.00
2013-6-21,81,68,56,46,39,33,54,36,18,29.92,29.78,21,8,28,0.00
2013-6-22,87,71,57,48,41,24,69,38,11,29.92,29.75,22,9,27,0.00
2013-6-23,74,66,57,51,45,40,75,50,31,29.88,29.74,27,14,30,0.00
2013-6-24,68,58,52,54,52,47,100,80,57,29.96,29.82,25,15,32,0.00
2013-6-25,82,67,54,57,54,50,98,66,37,29.99,29.84,22,13,27,0.00
2013-6-26,90,78,63,56,50,42,74,42,20,30.03,29.87,22,7,28,0.00
2013-6-27,94,80,68,56,47,32,64,36,12,30.05,29.91,24,9,30,0.00
2013-6-28,98,84,71,53,39,18,49,24,8,30.05,29.82,22,7,26,0.00
2013-6-29,103,86,70,50,40,29,42,21,8,29.98,29.74,22,4,25,0.00
2013-6-30,104,88,74,52,39,25,38,21,7,29.91,29.69,23,7,31,0.00
2013-7-1,91,83,72,56,45,36,54,28,18,29.94,29.80,28,14,34,0.00
2013-7-2,94,80,71,55,44,38,56,30,15,29.99,29.84,23,13,30,0.00
2013-7-3,92,79,71,54,47,40,50,33,19,29.97,29.75,25,14,32,0.00
2013-7-4,90,79,71,52,47,40,45,33,24,29.88,29.70,26,14,30,0.00
2013-7-5,88,78,70,50,44,37,49,31,22,29.86,29.70,26,15,31,0.00
2013-7-6,91,76,70,52,49,41,53,40,18,29.85,29.70,22,12,28,0.00
2013-7-7,92,80,70,57,44,24,60,32,9,29.93,29.74,20,10,25,0.00
2013-7-8,95,81,69,55,37,25,58,25,9,30.04,29.83,27,7,32,0.00
2013-7-9,98,83,69,52,34,24,39,19,8,30.06,29.89,19,4,20,0.00
2013-7-10,95,79,70,56,45,32,56,33,11,30.03,29.85,30,9,34,0.00
2013-7-11,77,69,64,60,54,49,81,59,45,30.03,29.90,24,13,31,0.00
2013-7-12,88,75,66,58,50,38,76,45,20,29.97,29.81,24,10,27,0.00
2013-7-13,93,79,66,55,40,29,64,28,12,29.99,29.80,22,6,25,0.00
2013-7-14,94,80,69,52,41,32,43,27,12,29.99,29.78,19,4,24,0.00
2013-7-15,90,77,65,51,44,34,51,33,14,29.93,29.74,35,8,36,0.00
2013-7-16,85,74,61,42,24,-1,46,19,4,30.03,29.85,27,10,30,0.00
2013-7-17,91,76,62,34,21,-24,33,15,1,30.06,29.90,18,8,26,0.00
2013-7-18,94,79,62,41,25,15,32,15,7,30.06,29.81,21,6,27,0.00
2013-7-19,95,82,68,49,27,5,46,16,4,29.95,29.75,23,8,28,0.00
2013-7-20,87,77,71,62,51,28,68,42,18,29.93,29.76,26,11,30,0.00
2013-7-21,79,73,68,63,60,57,83,63,48,29.97,29.85,22,10,27,0.00
2013-7-22,86,74,65,62,59,56,90,62,39,30.01,29.86,21,8,24,0.00
2013-7-23,86,75,65,59,55,49,76,52,29,30.04,29.87,20,8,27,0.00
2013-7-24,93,78,68,57,52,44,66,44,22,30.01,29.82,24,8,30,0.00
2013-7-25,95,80,68,56,48,19,62,37,8,30.05,29.84,24,9,28,0.00
2013-7-26,87,77,70,57,51,43,59,42,24,30.09,29.97,17,6,21,0.00
2013-7-27,90,78,67,57,50,43,69,40,22,30.04,29.82,22,10,27,0.00
2013-7-28,85,74,66,57,39,26,67,32,12,29.94,29.79,29,15,38,0.00
2013-7-29,87,74,65,48,32,12,53,26,7,30.04,29.88,28,14,33,0.00
2013-7-30,85,74,63,51,44,37,60,35,20,30.10,29.94,26,10,33,0.00
2013-7-31,85,74,62,50,36,13,60,31,7,30.10,29.93,31,11,34,0.00
2013-8-1,85,72,62,49,24,-8,59,24,3,30.03,29.84,27,11,29,0.00
2013-8-2,84,72,59,47,38,16,61,33,8,29.99,29.83,23,11,29,0.00
2013-8-3,85,72,60,48,35,12,62,32,7,30.01,29.86,24,11,29,0.00
2013-8-4,89,75,64,44,27,-3,45,21,3,30.01,29.86,24,12,28,0.00
2013-8-5,88,75,63,31,17,-1,25,13,4,30.02,29.85,23,11,30,0.00
2013-8-6,85,74,63,34,20,5,32,14,6,30.03,29.89,25,14,30,0.00
2013-8-7,84,70,61,44,34,25,45,28,16,30.05,29.89,25,12,27,0.00
2013-8-8,80,70,60,36,24,5,39,19,9,30.03,29.86,29,13,34,0.00
2013-8-9,79,69,54,46,28,5,61,26,6,29.99,29.86,27,11,32,0.00
2013-8-10,83,70,57,45,29,15,63,26,8,30.02,29.87,23,9,30,0.00
2013-8-11,85,72,58,43,34,20,49,28,9,30.04,29.84,21,8,25,0.00
2013-8-12,88,75,59,47,32,16,56,24,8,30.01,29.84,19,6,27,0.00
2013-8-13,92,78,63,40,30,22,35,19,9,30.02,29.83,21,6,25,0.00
2013-8-14,94,80,64,48,27,-9,43,17,2,30.01,29.82,20,5,27,0.00
2013-8-15,91,80,66,54,42,19,56,30,8,30.01,29.84,28,9,30,0.00
2013-8-16,92,80,69,50,43,36,45,28,15,30.01,29.87,24,9,30,0.00
2013-8-17,91,80,68,48,43,37,45,29,15,30.01,29.80,27,11,30,0.00
2013-8-18,93,81,66,54,46,40,45,31,18,29.97,29.78,28,7,29,0.00
2013-8-19,90,79,66,61,53,47,76,43,24,30.03,29.83,20,7,27,0.07
2013-8-20,89,79,69,54,41,22,51,29,9,29.96,29.82,27,12,31,0.00
2013-8-21,91,82,69,44,39,32,33,23,14,29.98,29.82,23,11,29,0.00
2013-8-22,94,81,70,42,37,30,32,22,15,30.00,29.79,24,9,30,0.00
2013-8-23,88,78,69,40,31,26,33,19,11,29.96,29.75,27,10,32,0.00
2013-8-24,87,77,67,49,30,15,45,20,7,29.94,29.76,29,12,30,0.00
2013-8-25,86,75,64,56,47,34,70,40,16,30.02,29.82,27,9,35,0.00
2013-8-26,80,70,62,64,58,52,85,67,46,30.04,29.92,13,2,17,0.04
2013-8-27,87,74,63,65,57,50,88,60,28,29.98,29.78,20,6,24,0.00
2013-8-28,89,78,65,60,54,50,70,46,29,29.99,29.81,25,8,28,0.00
2013-8-29,91,80,68,60,53,49,56,41,28,30.04,29.89,19,5,24,0.00
2013-8-30,87,77,69,65,59,50,82,55,35,30.06,29.94,21,7,29,0.00
2013-8-31,84,74,69,67,63,57,90,70,41,30.03,29.87,26,12,32,0.00
2013-9-1,87,74,66,65,58,46,95,62,27,30.00,29.83,24,12,27,0.00
2013-9-2,90,78,67,60,52,42,77,45,20,29.97,29.81,22,8,25,0.00
2013-9-3,89,78,69,58,53,49,64,44,26,30.00,29.82,25,7,30,0.00
2013-9-4,93,80,68,56,53,47,58,41,22,30.02,29.84,25,6,33,0.00
2013-9-5,91,80,68,56,50,45,56,37,21,30.00,29.82,26,7,30,0.00
2013-9-6,92,80,69,51,47,43,49,33,20,29.99,29.82,26,7,29,0.00
2013-9-7,93,77,70,62,50,43,66,39,21,29.97,29.83,21,7,26,0.05
2013-9-8,92,78,67,56,44,28,66,35,11,29.94,29.71,14,5,20,0.00
2013-9-9,91,76,65,54,48,39,59,39,18,29.92,29.68,25,6,37,0.00
2013-9-10,82,71,63,48,42,35,58,36,22,29.97,29.80,22,12,25,0.00
2013-9-11,82,72,62,51,43,34,60,38,18,29.99,29.87,22,11,27,0.00
2013-9-12,85,74,62,46,38,30,51,30,16,30.01,29.81,16,7,24,0.00
2013-9-13,91,77,62,41,37,33,36,25,14,29.95,29.67,13,3,19,0.00
2013-9-14,93,78,63,47,40,35,45,27,15,29.87,29.64,16,3,19,0.00
2013-9-15,91,79,68,48,40,34,45,26,15,29.88,29.72,17,6,27,0.00
2013-9-16,89,77,64,49,37,28,46,26,11,29.94,29.74,25,6,30,0.00
2013-9-17,81,71,59,42,33,21,43,27,13,29.91,29.70,28,10,37,0.00
2013-9-18,83,68,56,48,35,24,57,33,12,29.89,29.70,12,3,18,0.00
2013-9-19,88,72,56,49,34,22,53,30,9,29.93,29.71,15,4,18,0.00
2013-9-20,82,71,56,55,38,27,91,36,16,29.92,29.77,30,11,35,0.00
2013-9-21,73,59,51,55,49,38,100,74,31,29.94,29.76,28,14,33,0.00
2013-9-22,71,59,47,48,35,23,88,47,18,30.00,29.78,19,6,33,0.00
2013-9-23,83,66,47,40,32,27,66,34,15,30.04,29.84,11,2,18,0.00
2013-9-24,83,70,59,37,32,25,42,26,14,30.01,29.81,25,8,26,0.00
2013-9-25,72,62,52,48,34,24,83,38,20,29.91,29.66,31,13,41,0.00
2013-9-26,63,54,49,48,30,14,90,45,15,29.98,29.78,21,9,29,0.00
2013-9-27,69,56,42,28,23,18,50,30,17,30.13,29.96,16,2,21,0.00
2013-9-28,77,62,48,24,19,14,30,20,11,30.15,29.96,13,2,17,0.00
2013-9-29,83,68,53,24,20,14,29,18,8,30.16,29.92,16,5,25,0.00
2013-9-30,83,68,54,37,26,15,38,22,9,30.07,29.82,17,5,22,0.00
2013-10-1,79,68,58,42,34,29,49,30,19,29.97,29.82,21,10,25,0.00
2013-10-2,73,62,53,52,43,32,97,52,26,29.96,29.83,22,13,27,0.00
2013-10-3,67,57,50,53,45,25,100,69,31,30.01,29.79,23,10,27,0.00
2013-10-4,66,56,47,25,14,8,33,20,12,30.24,30.00,18,5,24,0.00
2013-10-5,71,58,47,22,16,9,31,20,11,30.31,30.13,20,3,23,0.00
2013-10-6,79,63,50,19,12,7,22,14,7,30.25,29.99,11,2,19,0.00
2013-10-7,77,64,52,25,14,9,29,15,8,30.11,29.87,25,8,33,0.00
2013-10-8,70,60,49,46,29,18,91,36,16,29.97,29.77,25,13,30,0.00
2013-10-9,49,45,38,46,42,37,98,91,79,29.85,29.70,35,15,44,0.07
2013-10-10,56,45,37,42,40,37,100,82,54,30.05,29.85,20,12,27,0.00
2013-10-11,70,56,40,41,36,31,87,51,24,30.10,29.89,10,2,15,0.00
2013-10-12,71,58,46,46,35,31,82,45,23,30.04,29.85,19,5,23,0.00
2013-10-13,63,53,45,46,40,27,94,64,26,30.09,29.89,22,9,27,0.00
2013-10-14,69,55,42,38,30,23,75,41,21,30.15,29.96,14,2,19,0.00
2013-10-15,70,58,47,29,23,16,41,28,17,30.13,29.93,12,2,17,0.00
2013-10-16,70,56,46,24,19,16,35,24,14,30.20,30.01,14,1,15,0.00
2013-10-17,75,60,45,27,21,15,34,23,13,30.14,29.89,9,2,15,0.00
2013-10-18,76,61,46,28,21,13,44,24,11,30.13,29.94,10,2,17,0.00
2013-10-19,77,63,48,22,14,10,25,16,8,30.15,29.95,10,2,13,0.00
2013-10-20,81,64,48,27,18,12,30,18,8,30.08,29.84,15,4,19,0.00
2013-10-21,80,64,49,24,17,12,27,17,8,30.07,29.88,11,2,15,0.00
2013-10-22,78,63,51,25,18,14,26,18,10,30.10,29.89,12,2,16,0.00
2013-10-23,77,62,48,48,27,17,69,31,11,30.03,29.82,13,3,16,0.00
2013-10-24,77,63,49,44,25,15,58,26,10,30.08,29.87,13,2,19,0.00
2013-10-25,80,65,51,29,22,17,33,21,11,30.15,29.98,11,1,14,0.00
2013-10-26,78,66,52,29,22,18,30,20,11,30.18,29.98,17,2,18,0.00
2013-10-27,75,63,49,45,31,20,87,33,13,30.06,29.77,24,8,31,0.00
2013-10-28,50,46,41,47,41,34,95,82,64,29.93,29.68,53,26,60,2.50
2013-10-29,51,44,39,41,38,36,95,80,60,30.03,29.90,25,10,28,0.00
2013-10-30,61,46,35,43,31,22,98,61,29,30.15,29.97,10,1,18,0.00
2013-10-31,66,52,38,31,23,16,58,35,18,30.18,30.02,11,1,16,0.00
2013-11-1,71,57,46,26,22,16,34,26,17,30.21,30.01,13,1,13,0.00
2013-11-2,74,57,41,39,26,17,63,35,13,30.13,29.84,18,3,21,0.00
2013-11-3,64,53,46,46,37,29,100,57,29,29.93,29.79,23,11,26,0.00
2013-11-4,60,50,44,50,35,18,100,65,28,30.04,29.79,16,4,24,0.00
2013-11-5,57,47,38,20,11,3,40,25,14,30.29,30.04,15,3,22,0.00
2013-11-6,66,52,39,12,5,1,24,16,9,30.33,30.17,13,2,18,0.00
2013-11-7,70,54,42,18,12,1,25,19,13,30.28,30.03,6,1,11,0.00
2013-11-8,75,60,49,18,14,7,25,17,8,30.12,29.90,14,4,17,0.00
2013-11-9,72,60,50,22,13,3,29,17,7,30.14,29.96,15,4,18,0.00
2013-11-10,72,56,45,22,15,11,30,20,12,30.18,30.01,9,1,10,0.00
2013-11-11,72,59,47,27,21,14,32,24,16,30.22,30.03,11,2,15,0.00
2013-11-12,68,60,53,23,20,18,31,22,16,30.25,30.15,9,1,10,0.00
2013-11-13,74,60,46,23,17,14,31,20,11,30.23,29.99,10,2,12,0.00
2013-11-14,77,62,49,28,21,13,32,21,12,30.13,29.79,17,3,21,0.00
2013-11-15,60,52,45,46,37,22,99,62,24,29.79,29.67,23,11,27,0.00
2013-11-16,53,47,42,45,43,41,100,88,65,29.96,29.77,29,14,33,0.00
2013-11-17,62,49,40,50,39,35,100,72,42,30.14,29.95,15,3,21,0.00
2013-11-18,62,50,38,46,40,33,96,72,41,30.17,29.99,16,4,24,0.00
2013-11-19,53,47,44,46,44,43,100,90,70,30.08,29.92,27,13,28,0.00
2013-11-20,52,47,45,47,46,44,100,94,79,29.97,29.86,27,14,33,0.00
2013-11-21,54,47,41,50,46,41,100,97,77,29.97,29.83,22,5,23,0.29
2013-11-22,41,36,33,41,36,33,100,100,100,30.07,29.97,16,4,24,0.50
2013-11-23,39,37,34,39,37,34,100,100,100,30.16,30.06,9,1,13,0.06
2013-11-24,53,42,36,51,41,36,100,96,73,30.26,30.10,11,1,12,0.00
2013-11-25,60,47,36,42,33,27,95,62,33,30.29,30.15,11,1,12,0.00
2013-11-26,60,50,44,35,30,25,68,49,34,30.28,30.09,12,1,14,0.00
2013-11-27,58,46,38,37,33,30,78,62,39,30.15,29.92,12,1,17,0.00
2013-11-28,57,47,37,40,32,28,78,58,34,30.13,29.93,17,2,22,0.00
2013-11-29,48,43,38,42,36,31,87,75,57,30.26,30.13,3,0,8,0.12
2013-11-30,61,49,40,42,34,29,81,58,34,30.27,30.09,10,1,13,0.00
2013-12-1,62,51,41,34,28,23,61,44,26,30.31,30.15,10,2,13,0.00
2013-12-2,68,54,41,32,25,20,59,35,18,30.25,29.93,20,6,30,0.00
2013-12-3,59,50,36,44,32,23,94,53,30,29.93,29.67,29,15,37,0.00
2013-12-4,44,34,27,32,18,12,84,52,29,30.01,29.81,19,3,32,0.00
2013-12-5,46,33,25,31,19,15,98,61,33,30.13,29.94,6,0,10,0.00
2013-12-6,44,36,26,33,29,16,100,78,56,30.13,30.01,21,9,26,0.00
2013-12-7,46,36,28,36,29,18,95,78,60,30.09,29.88,36,15,44,0.02
2013-12-8,42,30,22,32,16,9,99,58,36,30.27,30.03,12,2,19,0.00
2013-12-9,37,28,21,10,0,-9,58,32,14,30.45,30.27,19,3,23,0.00
2013-12-10,46,32,23,4,-2,-6,38,24,13,30.43,30.13,10,1,13,0.00
2013-12-11,52,39,25,12,8,3,40,29,17,30.29,30.14,10,1,13,0.00
2013-12-12,57,44,34,21,13,10,44,30,17,30.27,30.08,10,1,12,0.00
2013-12-13,58,47,39,32,17,7,73,34,13,30.31,30.07,19,5,22,0.00
2013-12-14,56,46,39,19,14,10,39,28,20,30.40,30.26,14,2,18,0.00
2013-12-15,62,50,41,19,16,10,35,27,17,30.39,30.19,13,2,13,0.00
2013-12-16,68,53,44,22,19,16,35,26,16,30.31,30.13,10,1,11,0.00
2013-12-17,68,54,46,25,21,18,35,28,17,30.28,30.07,7,1,10,0.00
2013-12-18,69,54,43,40,26,20,86,36,18,30.11,29.77,29,6,33,0.00
2013-12-19,44,40,33,40,37,33,100,91,77,29.84,29.67,37,13,45,0.11
2013-12-20,49,40,33,38,26,14,100,62,34,30.01,29.84,15,4,18,0.00
2013-12-21,45,36,32,39,29,11,100,79,32,29.98,29.92,17,7,21,0.00
2013-12-22,57,49,43,28,26,23,50,40,31,30.32,30.12,7,1,11,0.00
2013-12-23,59,48,41,30,26,24,53,43,30,30.38,30.24,9,1,18,0.00
2013-12-24,64,51,37,34,27,25,64,42,24,30.33,30.13,11,1,14,0.00
2013-12-25,59,48,44,26,24,20,45,38,23,30.35,30.23,10,2,13,0.00
2013-12-26,48,47,45,7,4,1,19,17,15,30.29,30.26,1,0,3,0.00
2013-12-27,67,52,37,11,6,-1,24,16,8,30.30,30.07,8,1,13,0.00
2013-12-28,68,54,46,12,7,-3,25,15,6,30.14,29.88,19,4,26,0.00
2013-12-29,56,46,38,14,6,-1,30,19,12,30.27,30.11,16,3,21,0.00
2013-12-30,63,48,36,13,4,-1,26,18,9,30.30,30.11,4,1,9,0.00
2013-12-31,69,50,37,15,9,4,28,20,11,30.26,30.00,8,1,9,0.00
2014-1-1,64,50,39,18,13,6,35,23,12,30.24,30.07,10,2,15,0.00
2014-1-2,65,50,41,23,19,16,39,30,19,30.23,30.01,8,1,10,0.00